Location: Cella
(44.7333°N, 10.5667°E)
Time: 15:12:30
(UTC+00:00)

SL-16 R/B - Pass Details

Date: 03 March 2021
Orbit: 842 x 846 km, 71.0° (Epoch: 11 April)

Event Time Altitude Azimuth Distance (km) Brightness Sun altitude
Rises 17:46:09 0° 202° (SSW) 3,387 5.7 -7.5°
Reaches altitude 10° 17:48:35 10° 202° (SSW) 2,456 4.9 -8.0°
Maximum altitude 17:54:14 86° 115° (ESE) 852 2.2 -9.0°
Drops below altitude 10° 17:59:56 10° 26° (NNE) 2,475 4.4 -10.0°
Sets 18:02:24 0° 27° (NNE) 3,415 5.1 -10.4°
